Regional Weather Roundup
Issued by NWS Wakefield, VA

Home | Current Version | Previous Version | Graphics & Text | Print | Product List | Glossary On
Versions: 1 2 3 4 5 6 7 8 9 10 11 12 13 14 15 16 17 18 19 20 21 22 23 24 25 26 27
000
ASUS41 KAKQ 182015
RWRAKQ

REGIONAL WEATHER ROUNDUP
NATIONAL WEATHER SERVICE WAKEFIELD VA
400 PM EDT WED OCT 18 2017

Note: "fair" indicates few or no clouds below 12,000 feet with no
significant weather and/or obstructions to visibility. * = Denotes
station may not report precipitation (e.g., rain,snow,etc.),
thunder or fog.

VAZ042-051-052>054-056-182100-
NORTHERN VIRGINIA

CITY           SKY/WX    TMP DP  RH WIND       PRES   REMARKS
WASH NATIONAL  SUNNY     69  44  40 S7        30.32F
DULLES         MOSUNNY   70  42  36 VRB5      30.31F
FORT BELVOIR   SUNNY     69  38  32 S6        30.32F
QUANTICO       MOSUNNY   69  44  40 S7        30.33F
FREDERICKSBRG* SUNNY     70  43  36 SE7       30.31F
STAFFORD*      SUNNY     70  39  32 SE3       30.36F
WARRENTON      SUNNY     72  34  24 W3        30.31F
CULPEPER*      SUNNY     71  37  28 CALM      30.32F
MANASSAS*      SUNNY     70  42  36 SE5       30.32F
LEESBURG*      SUNNY     72  43  35 S8        30.32F
WINCHESTER     SUNNY     68  41  37 S3        30.30F
FRONT ROYAL*   CLEAR     70  39  32 CALM      30.29F
LURAY*         CLEAR     70  39  32 S3        30.30F
$$

VAZ048-049-060>072-079>083-182100-
CENTRAL AND SOUTH CENTRAL VIRGINIA

CITY           SKY/WX    TMP DP  RH WIND       PRES   REMARKS
RICHMOND       MOSUNNY   68  38  33 VRB3      30.33F
CHESTERFIELD*  NOT AVBL
PETERSBURG*    SUNNY     68  32  26 SE3       30.34F
HANOVER        SUNNY     67  38  34 SW3       30.34F
TAPPAHANNOCK*  SUNNY     70  26  19 E5        30.34F
QUINTON*       FAIR      67  40  37 MISG      30.33F
CHARLOTTSVILLE SUNNY     70  39  32 S8        30.32F
GORDONSVILLE*  CLEAR     69  41  35 S5        30.32F
ORANGE*        SUNNY     68  37  32 S5        30.32F
LOUISA*        SUNNY     68  37  32 CALM      30.32F
BUMPASS*       FAIR      67  42  38 S5        30.33F
FARMVILLE*     SUNNY     70  39  32 CALM      30.32F
CREWE*         FAIR      67  38  33 E3        30.33F
FORT PICKETT*  FAIR      67  34  29 CALM      30.33F
CHASE CITY*    FAIR      69  37  30 SE3       30.33F
CLARKSVILLE*   FAIR      64  36  34 CALM      30.33F
SOUTH HILL*    SUNNY     67  38  34 CALM      30.39F
LAWRENCEVILLE* FAIR      67  37  33 CALM      30.33F
EMPORIA*       SUNNY     66  43  42 CALM      30.35F
$$

VAZ088>098-182100-
SOUTHEAST VIRGINIA

CITY           SKY/WX    TMP DP  RH WIND       PRES   REMARKS
NORFOLK        SUNNY     67  46  47 NE10      30.33F
VIRGINIA BEACH MOSUNNY   65  44  46 E5        30.33F
NORFOLK NAVAL  MOSUNNY   66  46  48 NE8       30.35F
WEST POINT*    SUNNY     67  40  37 S7        30.36F
SALUDA*        FAIR      65  47  52 E6        30.34F
NEWPORT NEWS   SUNNY     66  46  48 E6        30.34F
LANGLEY AFB    SUNNY     66  46  48 E6        30.34F
FORT EUSTIS    SUNNY     69  46  42 S5        30.31F
WILLIAMSBURG*  SUNNY     70  41  35 S5        30.35F
HR EXEC AP*    NOT AVBL
FRANKLIN*      SUNNY     69  47  45 SE3       30.33F
US460-WAKEFLD  SUNNY     68  46  45 E3        30.33F
$$

VAZ020-022-025-037-045-182100-
WEST CENTRAL AND SOUTHWEST VIRGINIA

CITY           SKY/WX    TMP DP  RH WIND       PRES   REMARKS
STAUNTON*      SUNNY     68  35  29 S6        30.33F
WAYNESBORO*    CLEAR     67  38  34 E9        30.33S
HOT SPRINGS VA SUNNY     58  31  36 SE6       30.37S
LYNCHBURG      SUNNY     66  37  34 VRB6      30.33F
DANVILLE       SUNNY     67  38  34 CALM      30.33F
SOUTH BOSTON*  FAIR      69  33  26 SE3       30.34S
MARTINSVILLE   SUNNY     67  40  37 SE3       30.35F
ROANOKE        SUNNY     67  37  33 E9        30.34F
BLACKSBURG     SUNNY     67  40  37 SE5       30.35S
DUBLIN*        SUNNY     68  42  37 SE6       30.33F
MARION*        SUNNY     68  35  29 E7        30.33F
HILLSVILLE*    SUNNY     63  31  29 CALM      30.33F
RICHLANDS*     FAIR      68  18  14 CALM      30.30F
WISE*          MOSUNNY   68  39  34 S5        30.31F
ABINGDON*      SUNNY     72  33  24 CALM      30.29F
$$

MDZ021>025-VAZ099-100-182100-
SOUTHERN MARYLAND AND THE DELMARVA PENINSULA

CITY           SKY/WX    TMP DP  RH WIND       PRES   REMARKS
PATUXENT RIVER MOSUNNY   68  40  35 VRB5      30.33F
BAY BRIDGE APT SUNNY     70  43  37 S8        30.32F
LEONARDTOWN    NOT AVBL
DOVER          SUNNY     71  45  39 S9        30.29F
GEORGETOWN     SUNNY     70  44  39 SW6       30.32F
EASTON         SUNNY     68  39  34 W7        30.36F
CAMBRIDGE      SUNNY     68  41  37 S5        30.33S
SALISBURY      SUNNY     68  46  45 W6        30.33S
OCEAN CITY     SUNNY     66  48  52 S6        30.34S
WALLOPS ISLAND SUNNY     65  38  36 S8        30.34F
ACCOMACK*      SUNNY     66  47  50 W6        30.34S
$$

NCZ012>017-030>032-182100-
NORTH CENTRAL AND EASTERN NORTH CAROLINA

CITY           SKY/WX    TMP DP  RH WIND       PRES   REMARKS
ROANOKE RAPIDS FAIR      68  45  42 N3        30.33F
RALEIGH        MOSUNNY   67  33  28 NE7       30.33F
ELIZABETH CITY SUNNY     69  54  58 E8        30.33S
AHOSKIE*       SUNNY     67  48  50 CALM      30.33F
EDENTON*       SUNNY     70  56  61 CALM      30.33S
CURRITUCK*     SUNNY     66  53  62 NE7       30.34F
KILL DEVIL HLS SUNNY     67  53  61 NE3       30.31S
MANTEO         SUNNY    N/A N/A N/A NE13      30.32S
CAPE HATTERAS  SUNNY     71  59  65 NE9G18    30.29S
TARBORO*       NOT AVBL
GOLDSBORO      SUNNY     71  44  39 NE6       30.29F
WASHINGTON     MOSUNNY   70  54  56 E6        30.31F
GREENVILLE     SUNNY     70  48  46 E3        30.32F
NEW BERN       SUNNY     72  54  53 NE10      30.30F
WILMINGTON     SUNNY     74  53  48 NE12      30.27S
$$

VAZ048-182100-
ELSEWHERE

CITY           SKY/WX    TMP DP  RH WIND       PRES   REMARKS
HARRISBURG PA  SUNNY     71  46  40 VRB3      30.27F
BALTIMORE      MOSUNNY   70  43  37 S7        30.30F
ANNAPOLIS      SUNNY     69  54  58 SE9       30.31F
ANDREWS AFB    SUNNY     69  43  39 S5        30.31F
PHILADELPHIA   SUNNY     71  44  37 SW9       30.29F
HENDERSON NC   SUNNY     64  32  29 NE3       30.34F
GREENSBORO     MOSUNNY   67  37  33 E7        30.32F
ROCKY MOUNT    SUNNY     70  48  45 VRB5      30.32F
$$

VAZ100-182100-
MARINE

STATION/POSITION TIME  TEMP    WIND        PRES    WAVE   SWELL
                       AIR SEA DIR/SP/G            HT/PER HT/PER
                 (UTC) (F)     (DEG/KT/KT) (MB)    (FT/S) (FT/S)
BRANDYWINE LGT   1942   67     210/  5/  7 1026.9F
CAPE MAY NJ      1948   66 65  250/  4/  4 1026.2F
LEWES DE         1942   67 65   50/  4/  4 1026.4F
15NM E FENWICK I 1950   63 68  200/  8/ 10 1027.6F   3/10   3/10
OCEAN-CITY-INLET 1942   65 65  200/  8/ 10 1027.7F
WACHAPREAGUE VA  1942   64 64  180/  5/  6 1027.6F
THOMAS POINT MD  2000   65 67  170/ 10/ 11   N/A
GOOSES REEF MD   2000   66 70  200/  6/  8 1030.4    0
COVE POINT MD    1942   66     210/  7/  8 1027.7F
SOLOMONS ISLAND  1942   68 71  210/  2/  4 1026.7F
BISHOPS HEAD MD  1942   63 64  230/  5/  7 1027.7F
PINEY POINT MD   1942          140/  2/  3   N/A
POTOMAC MD       2000   64 70  130/  8/ 10 1026.7    0
CAMBRIDGE MD     1942   69 67              1027.8F
LEWISETTA VA     1942   63 65  110/  8/  9 1027.1F
RAPPAHANNOCK LGT 1942          270/  3/  5 1028.2F
STINGRAY PT      2000   65 69  200/  6/  8 1027.8    0
YORK RVR RNG VA  1942   63      70/  2/  3 1028.2F
YORKTOWN VA      1942   63 70   90/  8/  9 1027.2F
JAMESTOWN VA     2000      71  140/  2/  6   N/A     0
DOMINION TERM VA 1942   64      60/  8/ 10 1027.7F
KIPTOPEKE VA     1942      67  190/  2/  3   N/A
CAPE HENRY VA    1942   64      70/  5/  6   N/A
WILLOUBY STN VA  1942   63      60/  8/  9 1027.4F
S CRANEY ISL VA  1942   65      50/  9/ 11 1027.0F
CAPE HENRY BUOY  1930      70                N/A     3/ 9   2/11
1ST LANDING BUOY 2000   63 69              1027.5    1/ 4
CAPE CHARLES BUO 1951      70                N/A     3/10   2/11
64NM E OF VA BCH 1950   64 68   40/ 10/ 12 1027.2F   4/ 9   3/ 9
DUCK PIER NC     1942   64 68   50/ 11/ 13 1026.5F
44100 DUCK FRF   1935      71                N/A     4/10   2/11
44056 DUCK FRF   2000      70                N/A     4/ 8   2/11
OREGON INLET NC  1942   67 64   30/ 10/ 15 1026.2F
HATTERAS NC      1942   67 67   30/ 11/ 20 1025.5F
DIAMOND SHLS NC  1950   72 82   30/ 19/ 25 1024.2F   7/ 6   3/10
CAPE LOOKOUT NC  2000   68      20/ 19/ 23 1024.9F
$$




USA.gov is the U.S. government's official web portal to all federal, state and local government web resources and services.